Satellite-Ground Cal/Val Region Overpasses Predictions

Prediction of Satellite NPP Overpassing Cal/Val Region: PacNW

Region Location: (Latitude: 10.00, Longitude: 139.50) to (Latitude: 22.70, Longitude: 165.60).

Table of predicted overpasses for the next 14.0 days since TLE Epoch: 7/20/2018
Interval Starting Time Starting Location Ending Time Ending Location
1 07/20/2018 14:58:18 ( 22.69, 160.40) 07/20/2018 15:01:54 ( 10.01, 157.39)
2 07/21/2018 02:10:12 ( 19.88, 165.60) 07/21/2018 02:11:00 ( 22.69, 164.90)
3 07/21/2018 03:48:54 ( 10.01, 142.54) 07/21/2018 03:52:30 ( 22.69, 139.52)
4 07/21/2018 14:39:18 ( 22.66, 165.15) 07/21/2018 14:42:53 ( 10.04, 162.15)
5 07/21/2018 16:20:48 ( 22.65, 139.78) 07/21/2018 16:21:06 ( 21.60, 139.51)
6 07/22/2018 03:29:53 ( 10.05, 147.29) 07/22/2018 03:33:28 ( 22.67, 144.29)
7 07/22/2018 16:01:46 ( 22.68, 144.54) 07/22/2018 16:05:21 ( 10.06, 141.53)
8 07/23/2018 03:10:52 ( 10.03, 152.05) 07/23/2018 03:14:27 ( 22.65, 149.05)
9 07/23/2018 15:42:45 ( 22.70, 149.30) 07/23/2018 15:46:21 ( 10.02, 146.28)
10 07/24/2018 02:51:51 ( 10.01, 156.81) 07/24/2018 02:55:27 ( 22.69, 153.79)
11 07/24/2018 15:23:44 ( 22.66, 154.04) 07/24/2018 15:27:19 ( 10.04, 151.04)
12 07/25/2018 02:32:50 ( 10.04, 161.56) 07/25/2018 02:36:25 ( 22.67, 158.55)
13 07/25/2018 15:04:43 ( 22.68, 158.80) 07/25/2018 15:08:19 ( 10.01, 155.79)
14 07/26/2018 02:14:43 ( 13.19, 165.59) 07/26/2018 02:17:24 ( 22.64, 163.31)
15 07/26/2018 03:55:19 ( 10.02, 140.94) 07/26/2018 03:57:04 ( 16.19, 139.51)
16 07/26/2018 14:45:42 ( 22.65, 163.55) 07/26/2018 14:49:17 ( 10.03, 160.55)
17 07/27/2018 03:36:17 ( 10.00, 145.70) 07/27/2018 03:39:53 ( 22.68, 142.69)
18 07/27/2018 14:29:55 ( 11.28, 165.59) 07/27/2018 14:30:16 ( 10.05, 165.31)
19 07/27/2018 16:08:11 ( 22.67, 142.94) 07/27/2018 16:11:46 ( 10.05, 139.93)
20 07/28/2018 03:17:17 ( 10.04, 150.45) 07/28/2018 03:20:52 ( 22.66, 147.45)
21 07/28/2018 15:49:09 ( 22.69, 147.70) 07/28/2018 15:52:45 ( 10.01, 144.68)
22 07/29/2018 02:58:15 ( 10.02, 155.21) 07/29/2018 03:01:51 ( 22.70, 152.19)
23 07/29/2018 15:30:09 ( 22.65, 152.44) 07/29/2018 15:33:44 ( 10.03, 149.44)
24 07/30/2018 02:39:15 ( 10.06, 159.96) 07/30/2018 02:42:50 ( 22.68, 156.95)
25 07/30/2018 15:11:08 ( 22.68, 157.20) 07/30/2018 15:14:43 ( 10.06, 154.20)
26 07/31/2018 02:20:13 ( 10.03, 164.72) 07/31/2018 02:23:48 ( 22.66, 161.71)
27 07/31/2018 14:52:06 ( 22.70, 161.97) 07/31/2018 14:55:42 ( 10.02, 158.95)
28 08/01/2018 03:42:42 ( 10.01, 144.10) 08/01/2018 03:46:18 ( 22.70, 141.08)
29 08/01/2018 14:34:24 ( 18.09, 165.59) 08/01/2018 14:36:41 ( 10.04, 163.71)
30 08/01/2018 16:14:36 ( 22.66, 141.34) 08/01/2018 16:16:45 ( 15.09, 139.50)
31 08/02/2018 03:23:41 ( 10.05, 148.85) 08/02/2018 03:27:16 ( 22.68, 145.85)
32 08/02/2018 15:55:34 ( 22.68, 146.10) 08/02/2018 15:59:10 ( 10.00, 143.08)


NCC Satellite Cal/Val Overpasses Prediction Service
